Location: Newark
(25.4800°N, 85.7200°E)
Time: 12:56:09
(UTC+00:00)

Transit 4A - Pass Details

Date: 31 August 2019
Orbit: 865 x 980 km, 66.8° (Epoch: 15 September)

Event Time Altitude Azimuth Distance (km) Brightness Sun altitude
Rises 08:41:06 0° 174° (S) 3,635 11.1 52.0°
Reaches altitude 10° 08:43:59 10° 163° (SSE) 2,703 10.5 51.4°
Maximum altitude 08:49:17 29° 106° (ESE) 1,719 9.3 50.3°
Drops below altitude 10° 08:54:38 10° 49° (NE) 2,728 10.1 49.1°
Sets 08:57:32 0° 39° (NE) 3,675 10.7 48.5°
